WJA2001 MMUN-CYYC

Flight info

Callsign WJA2001
Flight time 5h 21m
Altitude 32000
Route NOSUG2A NOSUG UT27 PISAD L333 TRESR/N0455F340 L333 HRV DCT MLU DCT FSM DCT EAR/N0444F360 DCT MLS DCT MOBEK EBGAL7
Aircraft B737/M-SDE2E3FGHIRWXY/LB1

Departure

Time 2026-04-26 19:50
Airport Cancún International Airport (MMUN)

Arrival

Time 2026-04-27 01:12
Airport Calgary International Airport (CYYC)
Time Latitude Longitude Altitude Speed Heading
2026-04-26 19:19 21.04839 -86.88251 28 ft 0 kts 139°
2026-04-26 19:37 21.04850 -86.88261 28 ft 4 kts 139°
2026-04-26 19:37 21.04870 -86.88279 28 ft 4 kts 150°
2026-04-26 19:37 21.04894 -86.88287 28 ft 4 kts 190°
2026-04-26 19:38 21.04910 -86.88281 28 ft 0 kts 213°
2026-04-26 19:41 21.04905 -86.88285 28 ft 5 kts 213°
2026-04-26 19:41 21.04869 -86.88310 28 ft 13 kts 213°
2026-04-26 19:42 21.04726 -86.88411 28 ft 20 kts 213°
2026-04-26 19:42 21.04613 -86.88493 28 ft 18 kts 214°
2026-04-26 19:42 21.04516 -86.88560 28 ft 16 kts 214°
2026-04-26 19:42 21.04448 -86.88614 29 ft 9 kts 237°
2026-04-26 19:43 21.04468 -86.88680 29 ft 11 kts 302°
2026-04-26 19:43 21.04516 -86.88755 29 ft 13 kts 304°
2026-04-26 19:43 21.04569 -86.88840 29 ft 12 kts 305°
2026-04-26 19:43 21.04614 -86.88913 29 ft 13 kts 304°
2026-04-26 19:44 21.04639 -86.88958 29 ft 3 kts 290°
2026-04-26 19:44 21.04642 -86.88965 29 ft 2 kts 288°
2026-04-26 19:44 21.04640 -86.88991 29 ft 5 kts 252°
2026-04-26 19:44 21.04615 -86.89023 30 ft 7 kts 216°
2026-04-26 19:45 21.04604 -86.89031 29 ft 0 kts 213°
2026-04-26 19:47 21.04563 -86.89059 31 ft 10 kts 213°
2026-04-26 19:47 21.04502 -86.89050 31 ft 11 kts 134°
2026-04-26 19:48 21.04489 -86.89029 30 ft 0 kts 123°
2026-04-26 19:49 21.04473 -86.89003 31 ft 23 kts 123°
2026-04-26 19:50 21.04229 -86.88614 34 ft 102 kts 124°
2026-04-26 19:50 21.03708 -86.87780 36 ft 165 kts 123°
2026-04-26 19:50 21.02995 -86.86608 283 ft 202 kts 123°
2026-04-26 19:50 21.02252 -86.85291 1044 ft 203 kts 120°
2026-04-26 19:51 21.01974 -86.83854 2091 ft 205 kts 83°
2026-04-26 19:51 21.02625 -86.82409 2569 ft 236 kts 47°
2026-04-26 19:51 21.04003 -86.81376 3311 ft 245 kts 33°
2026-04-26 19:51 21.05528 -86.80434 3751 ft 263 kts 32°
2026-04-26 19:52 21.07161 -86.79433 4132 ft 279 kts 32°
2026-04-26 19:52 21.08887 -86.78482 5216 ft 278 kts 19°
2026-04-26 19:52 21.10805 -86.78205 6333 ft 281 kts 359°
2026-04-26 19:52 21.12757 -86.78499 7249 ft 285 kts 348°
2026-04-26 19:53 21.14693 -86.78941 8305 ft 283 kts 347°
2026-04-26 19:53 21.16618 -86.79376 9372 ft 282 kts 347°
2026-04-26 19:53 21.18544 -86.79794 10342 ft 284 kts 348°
2026-04-26 19:53 21.20550 -86.80212 10747 ft 307 kts 348°
2026-04-26 19:54 21.22718 -86.80639 10947 ft 333 kts 349°
2026-04-26 19:54 21.25049 -86.81089 11481 ft 345 kts 349°
2026-04-26 19:54 21.27430 -86.81546 12285 ft 348 kts 349°
2026-04-26 19:54 21.29816 -86.82004 13202 ft 349 kts 349°
2026-04-26 19:55 21.32211 -86.82465 14036 ft 351 kts 349°
2026-04-26 19:55 21.34620 -86.82930 14778 ft 354 kts 349°
2026-04-26 19:55 21.37056 -86.83401 15451 ft 358 kts 349°
2026-04-26 19:55 21.39526 -86.83879 16138 ft 362 kts 349°
2026-04-26 19:56 21.42017 -86.84362 16835 ft 366 kts 349°
2026-04-26 19:56 21.44535 -86.84850 17512 ft 370 kts 349°
2026-04-26 19:56 21.47079 -86.85344 18167 ft 373 kts 349°
2026-04-26 19:56 21.49647 -86.85843 18723 ft 377 kts 349°
2026-04-26 19:57 21.52237 -86.86346 19312 ft 379 kts 349°
2026-04-26 19:57 21.54843 -86.86852 19825 ft 382 kts 349°
2026-04-26 19:57 21.57458 -86.87360 19885 ft 381 kts 349°
2026-04-26 19:57 21.60066 -86.87867 19930 ft 382 kts 349°
2026-04-26 19:58 21.62684 -86.88376 19932 ft 383 kts 349°
2026-04-26 19:58 21.65303 -86.88885 19937 ft 382 kts 349°
2026-04-26 19:58 21.67920 -86.89395 19941 ft 382 kts 349°
2026-04-26 19:58 21.70558 -86.89908 20131 ft 388 kts 349°
2026-04-26 19:59 21.73218 -86.90427 20732 ft 388 kts 349°
2026-04-26 19:59 21.75873 -86.90944 21409 ft 387 kts 349°
2026-04-26 19:59 21.77632 -86.91287 21804 ft 389 kts 349°
2026-04-26 20:00 21.80703 -86.91886 22418 ft 392 kts 349°
2026-04-26 20:00 21.83397 -86.92411 22934 ft 395 kts 349°
2026-04-26 20:00 21.86110 -86.92933 23446 ft 397 kts 350°
2026-04-26 20:00 21.88863 -86.93300 23863 ft 400 kts 353°
2026-04-26 20:01 21.91613 -86.93543 24257 ft 404 kts 354°
2026-04-26 20:01 21.94463 -86.93751 24642 ft 407 kts 354°
2026-04-26 20:01 21.97262 -86.93950 25025 ft 410 kts 354°
2026-04-26 20:01 22.00112 -86.94162 25405 ft 412 kts 354°
2026-04-26 20:02 22.02982 -86.94387 25805 ft 415 kts 354°
2026-04-26 20:02 22.05867 -86.94622 26191 ft 418 kts 353°
2026-04-26 20:02 22.08776 -86.94867 26542 ft 421 kts 353°
2026-04-26 20:02 22.09762 -86.94951 26646 ft 422 kts 353°
2026-04-26 20:03 22.14659 -86.95371 27252 ft 427 kts 353°
2026-04-26 20:03 22.17628 -86.95627 27623 ft 429 kts 353°
2026-04-26 20:03 22.20615 -86.95885 27962 ft 432 kts 353°
2026-04-26 20:03 22.23623 -86.96145 28305 ft 435 kts 353°
2026-04-26 20:04 22.26643 -86.96406 28641 ft 437 kts 353°
2026-04-26 20:04 22.29686 -86.96669 28977 ft 440 kts 353°
2026-04-26 20:04 22.32747 -86.96933 29287 ft 442 kts 353°
2026-04-26 20:04 22.35823 -86.97199 29598 ft 445 kts 353°
2026-04-26 20:05 22.38913 -86.97466 29962 ft 446 kts 352°
2026-04-26 20:05 22.42006 -86.97733 30373 ft 445 kts 352°
2026-04-26 20:05 22.45082 -86.97997 30828 ft 443 kts 352°
2026-04-26 20:05 22.48147 -86.98262 31256 ft 441 kts 352°
2026-04-26 20:06 22.51210 -86.98527 31629 ft 441 kts 352°
2026-04-26 20:06 22.54272 -86.98792 31988 ft 442 kts 352°
2026-04-26 20:06 22.57335 -86.99058 32387 ft 441 kts 352°
2026-04-26 20:06 22.60394 -86.99323 32799 ft 440 kts 352°
2026-04-26 20:07 22.63449 -86.99588 33184 ft 440 kts 352°
2026-04-26 20:07 22.66501 -86.99853 33542 ft 440 kts 352°
2026-04-26 20:07 22.69552 -87.00118 33901 ft 440 kts 352°
2026-04-26 20:07 22.72599 -87.00382 34227 ft 439 kts 352°
2026-04-26 20:08 22.75641 -87.00646 34573 ft 438 kts 352°
2026-04-26 20:08 22.78663 -87.00908 34968 ft 434 kts 352°
2026-04-26 20:08 22.80652 -87.01081 35236 ft 432 kts 352°
2026-04-26 20:08 22.84622 -87.01426 35618 ft 431 kts 352°
2026-04-26 20:09 22.87613 -87.01687 35856 ft 432 kts 352°
2026-04-26 20:09 22.90617 -87.01950 35926 ft 436 kts 352°
2026-04-26 20:09 22.96730 -87.02485 35937 ft 445 kts 352°
2026-04-26 20:10 23.01937 -87.02938 35947 ft 450 kts 352°
2026-04-26 20:10 23.08140 -87.03477 35960 ft 451 kts 352°
2026-04-26 20:11 23.14383 -87.04016 35935 ft 450 kts 351°
2026-04-26 20:12 23.23716 -87.04821 35933 ft 447 kts 351°
2026-04-26 20:12 23.29910 -87.05357 35936 ft 446 kts 351°
2026-04-26 20:13 23.36089 -87.05893 35937 ft 445 kts 351°
2026-04-26 20:13 23.42255 -87.06428 35955 ft 444 kts 351°
2026-04-26 20:14 23.48412 -87.06963 35941 ft 443 kts 351°
2026-04-26 20:14 23.54555 -87.07497 35933 ft 442 kts 351°
2026-04-26 20:15 23.60682 -87.08030 35939 ft 442 kts 351°
2026-04-26 20:15 23.66805 -87.08563 35934 ft 441 kts 351°
2026-04-26 20:16 23.72928 -87.09097 35953 ft 441 kts 351°
2026-04-26 20:16 23.79042 -87.09630 35938 ft 440 kts 351°
2026-04-26 20:17 23.85148 -87.10164 35933 ft 440 kts 351°
2026-04-26 20:17 23.91245 -87.10696 35936 ft 439 kts 351°
2026-04-26 20:18 23.97340 -87.11230 35937 ft 439 kts 351°
2026-04-26 20:18 24.03433 -87.11764 35936 ft 439 kts 351°
2026-04-26 20:19 24.09525 -87.12298 35940 ft 439 kts 351°
2026-04-26 20:19 24.15603 -87.12831 35937 ft 438 kts 351°
2026-04-26 20:20 24.21679 -87.13365 35940 ft 438 kts 351°
2026-04-26 20:20 24.27737 -87.13932 35937 ft 436 kts 347°
2026-04-26 20:21 24.33526 -87.15610 35951 ft 429 kts 337°
2026-04-26 20:21 24.39165 -87.17751 35956 ft 429 kts 337°
2026-04-26 20:22 24.44807 -87.19878 35944 ft 429 kts 337°
2026-04-26 20:22 24.50454 -87.21984 35948 ft 428 kts 338°
2026-04-26 20:23 24.56096 -87.24079 35945 ft 428 kts 338°
2026-04-26 20:23 24.61742 -87.26177 35945 ft 428 kts 338°
2026-04-26 20:24 24.67343 -87.28260 35945 ft 428 kts 338°
2026-04-26 20:24 24.72984 -87.30361 35945 ft 428 kts 338°
2026-04-26 20:25 24.78625 -87.32464 35946 ft 428 kts 338°
2026-04-26 20:25 24.84269 -87.34570 35942 ft 429 kts 338°
2026-04-26 20:26 24.89923 -87.36682 35947 ft 429 kts 338°
2026-04-26 20:26 24.95587 -87.38800 35945 ft 430 kts 338°
2026-04-26 20:27 25.01254 -87.40921 35960 ft 430 kts 337°
2026-04-26 20:27 25.06916 -87.43045 35944 ft 429 kts 337°
2026-04-26 20:28 25.12553 -87.45198 35946 ft 428 kts 337°
2026-04-26 20:28 25.18171 -87.47356 35948 ft 427 kts 337°
2026-04-26 20:29 25.23753 -87.49499 35945 ft 427 kts 337°
2026-04-26 20:29 25.29366 -87.51655 35945 ft 427 kts 337°
2026-04-26 20:30 25.34975 -87.53809 35953 ft 426 kts 337°
2026-04-26 20:30 25.40574 -87.55962 35945 ft 426 kts 337°
2026-04-26 20:31 25.46162 -87.58112 35949 ft 425 kts 337°
2026-04-26 20:31 25.51741 -87.60262 35947 ft 425 kts 336°
2026-04-26 20:32 25.57318 -87.62413 35945 ft 424 kts 336°
2026-04-26 20:32 25.62895 -87.64565 35966 ft 424 kts 336°
2026-04-26 20:33 25.68465 -87.66718 35951 ft 424 kts 336°
2026-04-26 20:33 25.74030 -87.68870 35947 ft 423 kts 336°
2026-04-26 20:34 25.79581 -87.71019 35940 ft 423 kts 336°
2026-04-26 20:34 25.85136 -87.73172 35946 ft 423 kts 336°
2026-04-26 20:35 25.90687 -87.75326 35950 ft 423 kts 336°
2026-04-26 20:35 25.96240 -87.77482 35958 ft 423 kts 336°
2026-04-26 20:36 26.01792 -87.79640 35947 ft 422 kts 336°
2026-04-26 20:36 26.07336 -87.81797 35948 ft 422 kts 336°
2026-04-26 20:37 26.12868 -87.83952 35947 ft 421 kts 336°
2026-04-26 20:37 26.18401 -87.86109 35949 ft 421 kts 336°
2026-04-26 20:38 26.23929 -87.88266 35949 ft 421 kts 336°
2026-04-26 20:38 26.29456 -87.90426 35955 ft 421 kts 336°
2026-04-26 20:39 26.34978 -87.92585 35947 ft 420 kts 336°
2026-04-26 20:39 26.40487 -87.94742 35949 ft 420 kts 336°
2026-04-26 20:40 26.45996 -87.96900 35955 ft 419 kts 336°
2026-04-26 20:40 26.51499 -87.99059 35957 ft 419 kts 336°
2026-04-26 20:41 26.57003 -88.01220 35962 ft 419 kts 336°
2026-04-26 20:41 26.62509 -88.03384 35960 ft 419 kts 336°
2026-04-26 20:42 26.68006 -88.05547 35944 ft 419 kts 336°
2026-04-26 20:42 26.73462 -88.07696 35956 ft 418 kts 336°
2026-04-26 20:43 26.78952 -88.09861 35944 ft 418 kts 336°
2026-04-26 20:43 26.84441 -88.12028 35945 ft 418 kts 336°
2026-04-26 20:44 26.89931 -88.14197 35951 ft 419 kts 336°
2026-04-26 20:44 26.95420 -88.16367 35954 ft 418 kts 336°
2026-04-26 20:45 27.00907 -88.18540 35955 ft 418 kts 336°
2026-04-26 20:45 27.06393 -88.20714 35953 ft 418 kts 336°
2026-04-26 20:46 27.11875 -88.22889 35953 ft 418 kts 336°
2026-04-26 20:46 27.17356 -88.25066 35975 ft 418 kts 336°
2026-04-26 20:47 27.22838 -88.27246 35958 ft 418 kts 336°
2026-04-26 20:47 27.28314 -88.29425 35952 ft 417 kts 336°
2026-04-26 20:48 27.33794 -88.31583 35954 ft 417 kts 336°
2026-04-26 20:48 27.39282 -88.33722 35954 ft 417 kts 336°
2026-04-26 20:49 27.44768 -88.35865 35952 ft 417 kts 336°
2026-04-26 20:49 27.50255 -88.38013 35962 ft 418 kts 336°
2026-04-26 20:50 27.55741 -88.40165 35962 ft 418 kts 336°
2026-04-26 20:50 27.61228 -88.42320 35954 ft 418 kts 336°
2026-04-26 20:51 27.66714 -88.44476 35956 ft 417 kts 336°
2026-04-26 20:51 27.72200 -88.46635 35956 ft 417 kts 336°
2026-04-26 20:52 27.77646 -88.48781 35947 ft 417 kts 336°
2026-04-26 20:52 27.83125 -88.50941 35955 ft 417 kts 336°
2026-04-26 20:53 27.88606 -88.53106 35953 ft 417 kts 336°
2026-04-26 20:53 27.94086 -88.55271 35954 ft 417 kts 336°
2026-04-26 20:54 27.98680 -88.57089 35954 ft 417 kts 336°
2026-04-26 20:54 28.05050 -88.59612 35953 ft 417 kts 336°
2026-04-26 20:55 28.10527 -88.61784 35964 ft 417 kts 336°
2026-04-26 20:55 28.16004 -88.63958 35955 ft 417 kts 336°
2026-04-26 20:56 28.20583 -88.65783 35954 ft 415 kts 334°
2026-04-26 20:56 28.25626 -88.68808 35950 ft 407 kts 321°
2026-04-26 20:57 28.30222 -88.72565 35958 ft 407 kts 321°
2026-04-26 20:57 28.34822 -88.76326 35951 ft 408 kts 321°
2026-04-26 20:58 28.39398 -88.80051 35958 ft 407 kts 321°
2026-04-26 20:58 28.44004 -88.83793 35952 ft 407 kts 321°
2026-04-26 20:59 28.48603 -88.87531 35944 ft 406 kts 321°
2026-04-26 20:59 28.53204 -88.91274 35955 ft 407 kts 321°
2026-04-26 21:00 28.57808 -88.95024 35948 ft 407 kts 321°
2026-04-26 21:00 28.62411 -88.98777 35954 ft 407 kts 321°
2026-04-26 21:01 28.67020 -89.02538 35989 ft 407 kts 321°
2026-04-26 21:01 28.71617 -89.06294 35959 ft 406 kts 321°
2026-04-26 21:02 28.76197 -89.10041 35945 ft 405 kts 321°
2026-04-26 21:02 28.80768 -89.13784 35948 ft 404 kts 321°
2026-04-26 21:03 28.85326 -89.17521 35948 ft 403 kts 321°
2026-04-26 21:03 28.89879 -89.21258 35948 ft 403 kts 321°
2026-04-26 21:04 28.94429 -89.24997 35940 ft 403 kts 321°
2026-04-26 21:04 28.98976 -89.28737 35951 ft 403 kts 321°
2026-04-26 21:05 29.03515 -89.32475 35942 ft 402 kts 321°
2026-04-26 21:05 29.08046 -89.36210 35945 ft 401 kts 321°
2026-04-26 21:06 29.12573 -89.39946 35946 ft 401 kts 321°
2026-04-26 21:06 29.17099 -89.43686 35947 ft 401 kts 321°
2026-04-26 21:07 29.21619 -89.47425 35947 ft 401 kts 321°
2026-04-26 21:07 29.26142 -89.51170 35966 ft 401 kts 321°
2026-04-26 21:08 29.30668 -89.54922 35957 ft 402 kts 321°
2026-04-26 21:08 29.35195 -89.58680 35950 ft 402 kts 321°
2026-04-26 21:09 29.39695 -89.62418 35952 ft 402 kts 321°
2026-04-26 21:09 29.44224 -89.66185 35950 ft 402 kts 321°
2026-04-26 21:10 29.48751 -89.69955 35955 ft 402 kts 321°
2026-04-26 21:10 29.53279 -89.73730 35953 ft 402 kts 321°
2026-04-26 21:11 29.57810 -89.77513 35968 ft 403 kts 321°
2026-04-26 21:11 29.62356 -89.81311 35957 ft 404 kts 321°
2026-04-26 21:12 29.66906 -89.85117 35952 ft 405 kts 321°
2026-04-26 21:12 29.71457 -89.88929 35954 ft 405 kts 321°
2026-04-26 21:13 29.76012 -89.92748 35955 ft 405 kts 321°
2026-04-26 21:13 29.80567 -89.96572 35952 ft 405 kts 321°
2026-04-26 21:14 29.85125 -90.00393 35939 ft 407 kts 322°
2026-04-26 21:14 29.89875 -90.03977 35953 ft 409 kts 324°
2026-04-26 21:15 29.94692 -90.07492 35954 ft 410 kts 324°
2026-04-26 21:15 29.99517 -90.11026 35954 ft 411 kts 324°
2026-04-26 21:16 30.04338 -90.14583 35957 ft 412 kts 324°
2026-04-26 21:16 30.09161 -90.18153 35953 ft 412 kts 324°
2026-04-26 21:17 30.13978 -90.21727 35962 ft 412 kts 324°
2026-04-26 21:17 30.18803 -90.25311 35957 ft 412 kts 324°
2026-04-26 21:18 30.23632 -90.28901 35954 ft 413 kts 324°
2026-04-26 21:18 30.28457 -90.32493 35952 ft 412 kts 324°
2026-04-26 21:19 30.33281 -90.36088 35955 ft 412 kts 324°
2026-04-26 21:19 30.38103 -90.39687 35942 ft 412 kts 324°
2026-04-26 21:20 30.42892 -90.43265 35963 ft 413 kts 323°
2026-04-26 21:20 30.47725 -90.46880 35956 ft 414 kts 323°
2026-04-26 21:21 30.52561 -90.50501 35953 ft 414 kts 323°
2026-04-26 21:21 30.57396 -90.54126 35953 ft 414 kts 323°
2026-04-26 21:22 30.62234 -90.57758 35949 ft 414 kts 323°
2026-04-26 21:22 30.67070 -90.61392 35947 ft 414 kts 323°
2026-04-26 21:23 30.74320 -90.66850 35938 ft 414 kts 323°
2026-04-26 21:23 30.79152 -90.70492 35934 ft 414 kts 323°
2026-04-26 21:24 30.83982 -90.74138 35940 ft 414 kts 323°
2026-04-26 21:24 30.88812 -90.77788 35923 ft 414 kts 323°
2026-04-26 21:25 30.93638 -90.81440 35931 ft 414 kts 323°
2026-04-26 21:25 30.98465 -90.85096 35940 ft 414 kts 323°
2026-04-26 21:26 31.03303 -90.88766 35935 ft 415 kts 323°
2026-04-26 21:26 31.08145 -90.92443 35937 ft 415 kts 323°
2026-04-26 21:27 31.12955 -90.96101 35933 ft 416 kts 323°
2026-04-26 21:27 31.17802 -90.99790 35930 ft 416 kts 323°
2026-04-26 21:28 31.22648 -91.03484 35931 ft 416 kts 323°
2026-04-26 21:28 31.27499 -91.07187 35933 ft 417 kts 323°
2026-04-26 21:29 31.32363 -91.10904 35929 ft 418 kts 323°
2026-04-26 21:29 31.37230 -91.14627 35916 ft 418 kts 323°
2026-04-26 21:30 31.42102 -91.18359 35926 ft 418 kts 322°
2026-04-26 21:30 31.46148 -91.21462 35932 ft 419 kts 322°
2026-04-26 21:31 31.51843 -91.25836 35951 ft 419 kts 322°
2026-04-26 21:31 31.56724 -91.29589 35936 ft 420 kts 322°
2026-04-26 21:32 31.61608 -91.33350 35925 ft 420 kts 322°
2026-04-26 21:32 31.66498 -91.37119 35919 ft 420 kts 322°
2026-04-26 21:33 31.71385 -91.40892 35915 ft 420 kts 322°
2026-04-26 21:33 31.76234 -91.44640 35915 ft 420 kts 322°
2026-04-26 21:34 31.81114 -91.48416 35926 ft 420 kts 322°
2026-04-26 21:34 31.85998 -91.52201 35917 ft 421 kts 322°
2026-04-26 21:35 31.90880 -91.55989 35912 ft 420 kts 322°
2026-04-26 21:35 31.95764 -91.59783 35908 ft 420 kts 322°
2026-04-26 21:36 31.99816 -91.62935 35913 ft 420 kts 322°
2026-04-26 21:36 32.05533 -91.67388 36262 ft 420 kts 322°
2026-04-26 21:37 32.07961 -91.69279 36587 ft 417 kts 322°
2026-04-26 21:37 32.10385 -91.71170 36752 ft 418 kts 322°
2026-04-26 21:37 32.12813 -91.73067 36951 ft 418 kts 322°
2026-04-26 21:37 32.15233 -91.74957 37215 ft 416 kts 322°
2026-04-26 21:38 32.17641 -91.76839 37492 ft 415 kts 322°
2026-04-26 21:38 32.20044 -91.78718 37731 ft 414 kts 322°
2026-04-26 21:38 32.22441 -91.80595 37907 ft 414 kts 321°
2026-04-26 21:38 32.24847 -91.82480 37894 ft 416 kts 321°
2026-04-26 21:39 32.29654 -91.86249 37891 ft 413 kts 321°
2026-04-26 21:39 32.34431 -91.89999 37924 ft 411 kts 321°
2026-04-26 21:40 32.39196 -91.93745 37908 ft 411 kts 321°
2026-04-26 21:40 32.43952 -91.97489 37909 ft 410 kts 321°
2026-04-26 21:41 32.48677 -92.01213 37908 ft 411 kts 321°
2026-04-26 21:41 32.53448 -92.04949 37908 ft 412 kts 322°
2026-04-26 21:42 32.58293 -92.08582 37908 ft 413 kts 323°
2026-04-26 21:42 32.63160 -92.12203 37905 ft 414 kts 322°
2026-04-26 21:43 32.68032 -92.15845 37901 ft 414 kts 322°
2026-04-26 21:43 32.72074 -92.18878 37897 ft 413 kts 322°
2026-04-26 21:44 32.76931 -92.22533 37891 ft 413 kts 322°
2026-04-26 21:44 32.81788 -92.26193 37891 ft 413 kts 322°
2026-04-26 21:45 32.86642 -92.29857 37885 ft 413 kts 322°
2026-04-26 21:45 32.91481 -92.33513 37889 ft 411 kts 322°
2026-04-26 21:46 32.96299 -92.37158 37875 ft 409 kts 322°
2026-04-26 21:46 33.01106 -92.40800 37877 ft 408 kts 322°
2026-04-26 21:47 33.05889 -92.44429 37877 ft 407 kts 322°
2026-04-26 21:47 33.10660 -92.48054 37876 ft 406 kts 322°
2026-04-26 21:48 33.15398 -92.51658 37878 ft 407 kts 322°
2026-04-26 21:48 33.20169 -92.55292 37873 ft 407 kts 322°
2026-04-26 21:49 33.24941 -92.58931 37875 ft 407 kts 322°
2026-04-26 21:49 33.29715 -92.62577 37882 ft 407 kts 322°
2026-04-26 21:50 33.34488 -92.66227 37875 ft 407 kts 322°
2026-04-26 21:50 33.39258 -92.69879 37881 ft 407 kts 322°
2026-04-26 21:51 33.44025 -92.73534 37862 ft 407 kts 322°
2026-04-26 21:51 33.48790 -92.77191 37863 ft 407 kts 322°
2026-04-26 21:52 33.53551 -92.80851 37856 ft 406 kts 322°
2026-04-26 21:52 33.58308 -92.84512 37866 ft 406 kts 322°
2026-04-26 21:53 33.63066 -92.88180 37861 ft 407 kts 322°
2026-04-26 21:53 33.67833 -92.91859 37868 ft 408 kts 322°
2026-04-26 21:54 33.72603 -92.95546 37859 ft 408 kts 322°
2026-04-26 21:54 33.77381 -92.99243 37859 ft 408 kts 322°
2026-04-26 21:55 33.82152 -93.02939 37861 ft 408 kts 322°
2026-04-26 21:55 33.86922 -93.06640 37872 ft 407 kts 322°
2026-04-26 21:56 33.91676 -93.10333 37890 ft 407 kts 322°
2026-04-26 21:56 33.96433 -93.14035 37877 ft 407 kts 321°
2026-04-26 21:57 34.01148 -93.17708 37859 ft 406 kts 321°
2026-04-26 21:57 34.05888 -93.21406 37859 ft 406 kts 321°
2026-04-26 21:58 34.10626 -93.25107 37864 ft 406 kts 321°
2026-04-26 21:58 34.15365 -93.28815 37854 ft 406 kts 321°
2026-04-26 21:59 34.20103 -93.32526 37857 ft 406 kts 321°
2026-04-26 21:59 34.24842 -93.36242 37846 ft 406 kts 321°
2026-04-26 22:00 34.29571 -93.39957 37840 ft 406 kts 321°
2026-04-26 22:00 34.34305 -93.43680 37839 ft 405 kts 321°
2026-04-26 22:01 34.39029 -93.47401 37845 ft 405 kts 321°
2026-04-26 22:01 34.43758 -93.51131 37845 ft 406 kts 321°
2026-04-26 22:02 34.48493 -93.54870 37837 ft 406 kts 321°
2026-04-26 22:02 34.53224 -93.58611 37817 ft 406 kts 321°
2026-04-26 22:03 34.57944 -93.62348 37821 ft 405 kts 321°
2026-04-26 22:03 34.62629 -93.66064 37827 ft 405 kts 321°
2026-04-26 22:04 34.67341 -93.69806 37819 ft 405 kts 321°
2026-04-26 22:04 34.72053 -93.73553 37840 ft 405 kts 321°
2026-04-26 22:05 34.76762 -93.77303 37835 ft 405 kts 321°
2026-04-26 22:05 34.81473 -93.81059 37838 ft 405 kts 321°
2026-04-26 22:06 34.86175 -93.84813 37819 ft 404 kts 321°
2026-04-26 22:06 34.90863 -93.88560 37821 ft 403 kts 321°
2026-04-26 22:07 34.95542 -93.92308 37822 ft 403 kts 321°
2026-04-26 22:07 35.00223 -93.96062 37829 ft 403 kts 321°
2026-04-26 22:08 35.04904 -93.99821 37812 ft 403 kts 321°
2026-04-26 22:08 35.09582 -94.03583 37816 ft 403 kts 321°
2026-04-26 22:09 35.14260 -94.07350 37816 ft 403 kts 321°
2026-04-26 22:09 35.18936 -94.11120 37829 ft 403 kts 321°
2026-04-26 22:10 35.23595 -94.14883 37808 ft 405 kts 321°
2026-04-26 22:10 35.28296 -94.18685 37801 ft 405 kts 321°
2026-04-26 22:11 35.32996 -94.22490 37805 ft 405 kts 321°
2026-04-26 22:11 35.37688 -94.26295 37792 ft 404 kts 321°
2026-04-26 22:12 35.42375 -94.30098 37797 ft 403 kts 321°
2026-04-26 22:12 35.47061 -94.33907 37810 ft 404 kts 321°
2026-04-26 22:13 35.51751 -94.37723 37802 ft 405 kts 321°
2026-04-26 22:13 35.56440 -94.41545 37800 ft 405 kts 321°
2026-04-26 22:14 35.61130 -94.45374 37812 ft 405 kts 321°
2026-04-26 22:14 35.65817 -94.49205 37808 ft 404 kts 321°
2026-04-26 22:15 35.70510 -94.53048 37825 ft 406 kts 321°
2026-04-26 22:15 35.75227 -94.56917 37826 ft 408 kts 321°
2026-04-26 22:16 35.79958 -94.60801 37820 ft 409 kts 321°
2026-04-26 22:16 35.84684 -94.64686 37817 ft 409 kts 321°
2026-04-26 22:17 35.89412 -94.68579 37817 ft 408 kts 321°
2026-04-26 22:17 35.94128 -94.72468 37824 ft 407 kts 321°
2026-04-26 22:18 35.98804 -94.76329 37824 ft 407 kts 321°
2026-04-26 22:18 36.03542 -94.80248 37824 ft 407 kts 321°
2026-04-26 22:19 36.08213 -94.84117 37821 ft 407 kts 321°
2026-04-26 22:19 36.12911 -94.88014 37817 ft 406 kts 321°
2026-04-26 22:20 36.16815 -94.91257 37831 ft 407 kts 321°
2026-04-26 22:20 36.22320 -94.95837 37792 ft 409 kts 321°
2026-04-26 22:21 36.27045 -94.99775 37807 ft 410 kts 321°
2026-04-26 22:21 36.31788 -95.03733 37810 ft 412 kts 321°
2026-04-26 22:22 36.36543 -95.07705 37810 ft 413 kts 321°
2026-04-26 22:22 36.41314 -95.11698 37790 ft 415 kts 321°
2026-04-26 22:23 36.46121 -95.15729 37796 ft 419 kts 321°
2026-04-26 22:23 36.50967 -95.19799 37783 ft 422 kts 321°
2026-04-26 22:24 36.55846 -95.23899 37777 ft 424 kts 321°
2026-04-26 22:24 36.60730 -95.28011 37781 ft 424 kts 321°
2026-04-26 22:25 36.65624 -95.32137 37779 ft 426 kts 320°
2026-04-26 22:25 36.70522 -95.36278 37765 ft 430 kts 320°
2026-04-26 22:26 36.75491 -95.40482 37762 ft 433 kts 320°
2026-04-26 22:26 36.80491 -95.44719 37762 ft 436 kts 320°
2026-04-26 22:27 36.85511 -95.48978 37739 ft 437 kts 320°
2026-04-26 22:27 36.90534 -95.53246 37750 ft 437 kts 320°
2026-04-26 22:28 36.95558 -95.57524 37751 ft 437 kts 320°
2026-04-26 22:28 37.00576 -95.61802 37747 ft 436 kts 320°
2026-04-26 22:29 37.05579 -95.66076 37739 ft 435 kts 320°
2026-04-26 22:29 37.10574 -95.70350 37762 ft 434 kts 319°
2026-04-26 22:30 37.15508 -95.74571 37733 ft 422 kts 319°
2026-04-26 22:30 37.20319 -95.78696 37717 ft 418 kts 318°
2026-04-26 22:31 37.25109 -95.82821 37742 ft 418 kts 318°
2026-04-26 22:31 37.29906 -95.86957 37732 ft 419 kts 318°
2026-04-26 22:32 37.33905 -95.90408 37750 ft 420 kts 318°
2026-04-26 22:32 37.39500 -95.95240 37747 ft 420 kts 318°
2026-04-26 22:33 37.45941 -96.00814 37740 ft 420 kts 318°
2026-04-26 22:34 37.50758 -96.04991 37729 ft 421 kts 318°
2026-04-26 22:34 37.55577 -96.09175 37757 ft 420 kts 318°
2026-04-26 22:35 37.60380 -96.13352 37741 ft 419 kts 317°
2026-04-26 22:35 37.65174 -96.17528 37724 ft 418 kts 317°
2026-04-26 22:36 37.69952 -96.21697 37733 ft 417 kts 317°
2026-04-26 22:36 37.74719 -96.25864 37735 ft 416 kts 317°
2026-04-26 22:37 37.79482 -96.30034 37751 ft 417 kts 317°
2026-04-26 22:37 37.84255 -96.34221 37744 ft 418 kts 317°
2026-04-26 22:38 37.89038 -96.38422 37742 ft 419 kts 317°
2026-04-26 22:38 37.93796 -96.42607 37737 ft 420 kts 317°
2026-04-26 22:39 37.98592 -96.46831 37775 ft 420 kts 317°
2026-04-26 22:39 38.03395 -96.51070 37752 ft 421 kts 317°
2026-04-26 22:40 38.08203 -96.55320 37741 ft 422 kts 317°
2026-04-26 22:40 38.13017 -96.59582 37752 ft 422 kts 317°
2026-04-26 22:41 38.17837 -96.63857 37733 ft 423 kts 317°
2026-04-26 22:41 38.22658 -96.68138 37748 ft 423 kts 317°
2026-04-26 22:42 38.27479 -96.72427 37741 ft 423 kts 317°
2026-04-26 22:42 38.32296 -96.76720 37739 ft 422 kts 317°
2026-04-26 22:43 38.37105 -96.81013 37753 ft 422 kts 317°
2026-04-26 22:43 38.41914 -96.85313 37764 ft 423 kts 316°
2026-04-26 22:44 38.46730 -96.89626 37778 ft 423 kts 316°
2026-04-26 22:44 38.51551 -96.93953 37746 ft 424 kts 316°
2026-04-26 22:45 38.56385 -96.98297 37748 ft 425 kts 316°
2026-04-26 22:45 38.61230 -97.02658 37742 ft 426 kts 316°
2026-04-26 22:46 38.66076 -97.07027 37743 ft 426 kts 316°
2026-04-26 22:46 38.70927 -97.11409 37750 ft 427 kts 316°
2026-04-26 22:47 38.75788 -97.15806 37746 ft 428 kts 316°
2026-04-26 22:47 38.80653 -97.20216 37739 ft 429 kts 316°
2026-04-26 22:48 38.85523 -97.24636 37746 ft 429 kts 316°
2026-04-26 22:48 38.90357 -97.29031 37775 ft 429 kts 316°
2026-04-26 22:49 38.95235 -97.33476 37760 ft 430 kts 316°
2026-04-26 22:49 39.00124 -97.37937 37751 ft 432 kts 316°
2026-04-26 22:50 39.05022 -97.42414 37746 ft 432 kts 316°
2026-04-26 22:50 39.09921 -97.46900 37747 ft 432 kts 316°
2026-04-26 22:51 39.14824 -97.51397 37756 ft 433 kts 316°
2026-04-26 22:51 39.19738 -97.55912 37753 ft 434 kts 316°
2026-04-26 22:52 39.24654 -97.60437 37757 ft 434 kts 316°
2026-04-26 22:52 39.29573 -97.64972 37751 ft 434 kts 316°
2026-04-26 22:53 39.34486 -97.69510 37754 ft 435 kts 316°
2026-04-26 22:53 39.39416 -97.74074 37754 ft 437 kts 316°
2026-04-26 22:54 39.44360 -97.78657 37743 ft 437 kts 316°
2026-04-26 22:54 39.49299 -97.83242 37745 ft 437 kts 316°
2026-04-26 22:55 39.54234 -97.87833 37771 ft 437 kts 316°
2026-04-26 22:55 39.59177 -97.92441 37754 ft 438 kts 316°
2026-04-26 22:56 39.64126 -97.97062 37772 ft 439 kts 316°
2026-04-26 22:56 39.69085 -98.01701 37754 ft 440 kts 316°
2026-04-26 22:57 39.74053 -98.06356 37749 ft 441 kts 316°
2026-04-26 22:57 39.79033 -98.11032 37757 ft 442 kts 316°
2026-04-26 22:58 39.84027 -98.15728 37762 ft 444 kts 316°
2026-04-26 22:58 39.88998 -98.20412 37758 ft 445 kts 316°
2026-04-26 22:59 39.94008 -98.25141 37760 ft 445 kts 316°
2026-04-26 22:59 39.99024 -98.29884 37762 ft 446 kts 316°
2026-04-26 23:00 40.04054 -98.34651 37800 ft 448 kts 316°
2026-04-26 23:00 40.09101 -98.39441 37791 ft 448 kts 316°
2026-04-26 23:01 40.14148 -98.44240 37770 ft 449 kts 316°
2026-04-26 23:01 40.19201 -98.49054 37772 ft 450 kts 316°
2026-04-26 23:02 40.24261 -98.53885 37775 ft 451 kts 316°
2026-04-26 23:02 40.29334 -98.58737 37773 ft 452 kts 316°
2026-04-26 23:03 40.34408 -98.63599 37772 ft 452 kts 316°
2026-04-26 23:03 40.39481 -98.68468 37776 ft 452 kts 316°
2026-04-26 23:04 40.44552 -98.73345 37797 ft 452 kts 316°
2026-04-26 23:04 40.49625 -98.78235 37788 ft 452 kts 316°
2026-04-26 23:05 40.54696 -98.83132 37786 ft 452 kts 316°
2026-04-26 23:05 40.59762 -98.88034 37797 ft 453 kts 316°
2026-04-26 23:06 40.64834 -98.92951 37804 ft 453 kts 316°
2026-04-26 23:06 40.69912 -98.97883 37796 ft 454 kts 316°
2026-04-26 23:07 40.74918 -99.02840 37795 ft 452 kts 314°
2026-04-26 23:07 40.79766 -99.08094 37797 ft 451 kts 313°
2026-04-26 23:08 40.84585 -99.13423 37798 ft 453 kts 313°
2026-04-26 23:08 40.89428 -99.18741 37800 ft 453 kts 313°
2026-04-26 23:09 40.94292 -99.24054 37808 ft 453 kts 313°
2026-04-26 23:09 40.99159 -99.29366 37821 ft 454 kts 314°
2026-04-26 23:10 41.04032 -99.34694 37813 ft 455 kts 314°
2026-04-26 23:10 41.08907 -99.40037 37810 ft 455 kts 314°
2026-04-26 23:11 41.13785 -99.45394 37807 ft 455 kts 314°
2026-04-26 23:11 41.18663 -99.50762 37818 ft 456 kts 314°
2026-04-26 23:12 41.23550 -99.56151 37809 ft 457 kts 314°
2026-04-26 23:12 41.28438 -99.61552 37789 ft 457 kts 314°
2026-04-26 23:13 41.33323 -99.66960 37789 ft 457 kts 314°
2026-04-26 23:13 41.38209 -99.72380 37801 ft 457 kts 314°
2026-04-26 23:14 41.43061 -99.77774 37788 ft 458 kts 314°
2026-04-26 23:14 41.47949 -99.83218 37796 ft 458 kts 314°
2026-04-26 23:15 41.52834 -99.88671 37834 ft 458 kts 314°
2026-04-26 23:15 41.57725 -99.94142 37836 ft 459 kts 314°
2026-04-26 23:16 41.62617 -99.99624 37839 ft 459 kts 314°
2026-04-26 23:16 41.67509 -100.05118 37833 ft 459 kts 314°
2026-04-26 23:17 41.72397 -100.10618 37830 ft 459 kts 314°
2026-04-26 23:17 41.77282 -100.16126 37851 ft 459 kts 314°
2026-04-26 23:18 41.82163 -100.21642 37850 ft 459 kts 314°
2026-04-26 23:18 41.87044 -100.27169 37841 ft 459 kts 314°
2026-04-26 23:19 41.91917 -100.32697 37824 ft 458 kts 314°
2026-04-26 23:19 41.95964 -100.37297 37835 ft 459 kts 314°
2026-04-26 23:20 42.00831 -100.42842 37822 ft 459 kts 314°
2026-04-26 23:20 42.05695 -100.48393 37821 ft 458 kts 314°
2026-04-26 23:21 42.11343 -100.54853 37826 ft 458 kts 314°
2026-04-26 23:21 42.15410 -100.59516 37849 ft 459 kts 314°
2026-04-26 23:22 42.20268 -100.65095 37882 ft 459 kts 314°
2026-04-26 23:22 42.25092 -100.70648 37872 ft 459 kts 314°
2026-04-26 23:23 42.29945 -100.76244 37878 ft 459 kts 314°
2026-04-26 23:23 42.34794 -100.81848 37879 ft 458 kts 314°
2026-04-26 23:24 42.39630 -100.87472 37875 ft 458 kts 314°
2026-04-26 23:24 42.44468 -100.93084 37877 ft 458 kts 314°
2026-04-26 23:25 42.49308 -100.98700 37895 ft 458 kts 314°
2026-04-26 23:25 42.54145 -101.04333 37893 ft 459 kts 314°
2026-04-26 23:26 42.58985 -101.09984 37884 ft 459 kts 314°
2026-04-26 23:26 42.63825 -101.15650 37882 ft 459 kts 314°
2026-04-26 23:27 42.68660 -101.21321 37911 ft 460 kts 314°
2026-04-26 23:27 42.73502 -101.27013 37894 ft 460 kts 314°
2026-04-26 23:28 42.78342 -101.32714 37895 ft 460 kts 314°
2026-04-26 23:28 42.83181 -101.38428 37891 ft 460 kts 314°
2026-04-26 23:29 42.88011 -101.44142 37909 ft 460 kts 314°
2026-04-26 23:29 42.92841 -101.49868 37895 ft 460 kts 314°
2026-04-26 23:30 42.97667 -101.55603 37902 ft 460 kts 314°
2026-04-26 23:30 43.02488 -101.61342 37906 ft 460 kts 314°
2026-04-26 23:31 43.07303 -101.67089 37907 ft 460 kts 314°
2026-04-26 23:31 43.12118 -101.72847 37913 ft 459 kts 314°
2026-04-26 23:32 43.16892 -101.78570 37908 ft 459 kts 314°
2026-04-26 23:32 43.21722 -101.84370 37925 ft 459 kts 314°
2026-04-26 23:33 43.26484 -101.90103 37914 ft 458 kts 314°
2026-04-26 23:33 43.31272 -101.95880 37913 ft 458 kts 314°
2026-04-26 23:34 43.36052 -102.01660 37916 ft 458 kts 314°
2026-04-26 23:34 43.40831 -102.07450 37925 ft 458 kts 314°
2026-04-26 23:35 43.45607 -102.13250 37923 ft 458 kts 314°
2026-04-26 23:35 43.50384 -102.19064 37918 ft 458 kts 314°
2026-04-26 23:36 43.55156 -102.24883 37916 ft 458 kts 313°
2026-04-26 23:36 43.59919 -102.30706 37922 ft 458 kts 313°
2026-04-26 23:37 43.64682 -102.36542 37927 ft 458 kts 313°
2026-04-26 23:37 43.69133 -102.42001 37933 ft 451 kts 313°
2026-04-26 23:38 43.73841 -102.47798 37957 ft 456 kts 313°
2026-04-26 23:38 43.78608 -102.53681 37935 ft 460 kts 313°
2026-04-26 23:39 43.83389 -102.59587 37927 ft 460 kts 313°
2026-04-26 23:39 43.88163 -102.65498 37925 ft 460 kts 313°
2026-04-26 23:40 43.92933 -102.71418 37916 ft 460 kts 313°
2026-04-26 23:40 43.97696 -102.77344 37900 ft 460 kts 313°
2026-04-26 23:41 44.02454 -102.83277 37878 ft 459 kts 313°
2026-04-26 23:41 44.07191 -102.89196 37868 ft 459 kts 313°
2026-04-26 23:42 44.11910 -102.95107 37867 ft 458 kts 313°
2026-04-26 23:42 44.19009 -103.04024 37828 ft 458 kts 313°
2026-04-26 23:43 44.23735 -103.09977 37835 ft 458 kts 313°
2026-04-26 23:43 44.28454 -103.15935 37904 ft 458 kts 313°
2026-04-26 23:44 44.33170 -103.21903 37914 ft 457 kts 313°
2026-04-26 23:44 44.37884 -103.27880 37899 ft 457 kts 313°
2026-04-26 23:45 44.42591 -103.33863 37907 ft 458 kts 313°
2026-04-26 23:45 44.47299 -103.39862 37894 ft 458 kts 313°
2026-04-26 23:46 44.52003 -103.45867 37882 ft 457 kts 312°
2026-04-26 23:46 44.56701 -103.51881 37876 ft 457 kts 312°
2026-04-26 23:47 44.61401 -103.57909 37874 ft 458 kts 312°
2026-04-26 23:47 44.66098 -103.63949 37874 ft 458 kts 312°
2026-04-26 23:48 44.70764 -103.69961 37874 ft 458 kts 312°
2026-04-26 23:48 44.75454 -103.76018 37903 ft 457 kts 312°
2026-04-26 23:49 44.80139 -103.82083 37901 ft 457 kts 312°
2026-04-26 23:49 44.84815 -103.88152 37909 ft 457 kts 312°
2026-04-26 23:50 44.89491 -103.94233 37912 ft 457 kts 312°
2026-04-26 23:50 44.94162 -104.00322 37920 ft 457 kts 312°
2026-04-26 23:51 44.98829 -104.06421 37904 ft 457 kts 312°
2026-04-26 23:51 45.03493 -104.12529 37907 ft 457 kts 312°
2026-04-26 23:52 45.08154 -104.18648 37904 ft 457 kts 312°
2026-04-26 23:52 45.12811 -104.24775 37906 ft 457 kts 311°
2026-04-26 23:53 45.17464 -104.30912 37898 ft 457 kts 311°
2026-04-26 23:53 45.22108 -104.37051 37903 ft 456 kts 311°
2026-04-26 23:54 45.26747 -104.43198 37912 ft 456 kts 311°
2026-04-26 23:54 45.31384 -104.49357 37905 ft 456 kts 311°
2026-04-26 23:55 45.35987 -104.55485 37887 ft 456 kts 311°
2026-04-26 23:55 45.40615 -104.61660 37888 ft 456 kts 311°
2026-04-26 23:56 45.45238 -104.67844 37893 ft 456 kts 311°
2026-04-26 23:56 45.49861 -104.74042 37883 ft 456 kts 311°
2026-04-26 23:57 45.54477 -104.80246 37873 ft 456 kts 311°
2026-04-26 23:57 45.59091 -104.86462 37871 ft 456 kts 311°
2026-04-26 23:58 45.63708 -104.92697 37873 ft 457 kts 311°
2026-04-26 23:58 45.68323 -104.98943 37860 ft 457 kts 311°
2026-04-26 23:59 45.72933 -105.05197 37868 ft 457 kts 311°
2026-04-26 23:59 45.77544 -105.11469 37856 ft 457 kts 311°
2026-04-27 00:00 45.82151 -105.17749 37865 ft 457 kts 311°
2026-04-27 00:00 45.86760 -105.24048 37865 ft 458 kts 311°
2026-04-27 00:01 45.91364 -105.30355 37864 ft 458 kts 311°
2026-04-27 00:01 45.95969 -105.36677 37869 ft 458 kts 311°
2026-04-27 00:02 46.00567 -105.43007 37851 ft 457 kts 311°
2026-04-27 00:02 46.05155 -105.49337 37861 ft 457 kts 311°
2026-04-27 00:03 46.09734 -105.55672 37867 ft 457 kts 311°
2026-04-27 00:03 46.14310 -105.62016 37873 ft 456 kts 311°
2026-04-27 00:04 46.18883 -105.68373 37879 ft 456 kts 311°
2026-04-27 00:04 46.23451 -105.74737 37892 ft 456 kts 310°
2026-04-27 00:05 46.28011 -105.81108 37893 ft 456 kts 310°
2026-04-27 00:05 46.32565 -105.87485 37909 ft 456 kts 310°
2026-04-27 00:06 46.37124 -105.93883 37942 ft 456 kts 310°
2026-04-27 00:06 46.41561 -106.00341 37946 ft 455 kts 308°
2026-04-27 00:07 46.45884 -106.07025 37985 ft 454 kts 308°
2026-04-27 00:07 46.50196 -106.13732 37987 ft 455 kts 308°
2026-04-27 00:08 46.54526 -106.20434 37985 ft 455 kts 308°
2026-04-27 00:08 46.58868 -106.27142 38000 ft 455 kts 308°
2026-04-27 00:09 46.62505 -106.32764 37998 ft 456 kts 308°
2026-04-27 00:09 46.66814 -106.39442 38020 ft 456 kts 308°
2026-04-27 00:10 46.71148 -106.46176 38032 ft 456 kts 308°
2026-04-27 00:10 46.75478 -106.52922 38044 ft 455 kts 308°
2026-04-27 00:11 46.79805 -106.59682 38045 ft 455 kts 308°
2026-04-27 00:11 46.84124 -106.66444 38051 ft 455 kts 308°
2026-04-27 00:12 46.88439 -106.73217 38055 ft 455 kts 308°
2026-04-27 00:12 46.92749 -106.80001 38062 ft 455 kts 308°
2026-04-27 00:13 46.97052 -106.86790 38091 ft 455 kts 308°
2026-04-27 00:13 47.01351 -106.93592 38074 ft 455 kts 308°
2026-04-27 00:14 47.05653 -107.00414 38077 ft 456 kts 308°
2026-04-27 00:14 47.09951 -107.07249 38080 ft 456 kts 308°
2026-04-27 00:15 47.14247 -107.14097 38066 ft 456 kts 308°
2026-04-27 00:15 47.18545 -107.20966 38049 ft 456 kts 308°
2026-04-27 00:16 47.22835 -107.27839 38042 ft 456 kts 308°
2026-04-27 00:16 47.27119 -107.34720 38046 ft 456 kts 308°
2026-04-27 00:17 47.31395 -107.41608 38060 ft 455 kts 308°
2026-04-27 00:17 47.35664 -107.48501 38077 ft 455 kts 308°
2026-04-27 00:18 47.39926 -107.55401 38063 ft 455 kts 308°
2026-04-27 00:18 47.44184 -107.62313 38069 ft 454 kts 308°
2026-04-27 00:19 47.48431 -107.69223 38069 ft 454 kts 308°
2026-04-27 00:19 47.52646 -107.76102 38073 ft 454 kts 308°
2026-04-27 00:20 47.56886 -107.83037 38070 ft 454 kts 308°
2026-04-27 00:20 47.61120 -107.89982 38069 ft 454 kts 308°
2026-04-27 00:21 47.65349 -107.96936 38079 ft 454 kts 308°
2026-04-27 00:21 47.69576 -108.03905 38075 ft 455 kts 308°
2026-04-27 00:22 47.73802 -108.10890 38081 ft 454 kts 308°
2026-04-27 00:22 47.78021 -108.17883 38074 ft 454 kts 308°
2026-04-27 00:23 47.82236 -108.24886 38073 ft 454 kts 308°
2026-04-27 00:23 47.86450 -108.31909 38080 ft 455 kts 308°
2026-04-27 00:24 47.90660 -108.38942 38089 ft 455 kts 308°
2026-04-27 00:24 47.94873 -108.45997 38081 ft 455 kts 308°
2026-04-27 00:25 47.99078 -108.53060 38092 ft 455 kts 308°
2026-04-27 00:25 48.03284 -108.60143 38091 ft 456 kts 308°
2026-04-27 00:26 48.07461 -108.67196 38090 ft 457 kts 308°
2026-04-27 00:26 48.11669 -108.74320 38097 ft 457 kts 308°
2026-04-27 00:27 48.15875 -108.81458 38098 ft 457 kts 308°
2026-04-27 00:27 48.20081 -108.88618 38106 ft 458 kts 308°
2026-04-27 00:28 48.24291 -108.95803 38107 ft 459 kts 308°
2026-04-27 00:28 48.28503 -109.03011 38107 ft 460 kts 308°
2026-04-27 00:29 48.32716 -109.10239 38119 ft 460 kts 308°
2026-04-27 00:29 48.36925 -109.17481 38141 ft 460 kts 308°
2026-04-27 00:30 48.41136 -109.24747 38128 ft 461 kts 308°
2026-04-27 00:30 48.45347 -109.32031 38137 ft 461 kts 308°
2026-04-27 00:31 48.49547 -109.39319 38149 ft 461 kts 308°
2026-04-27 00:31 48.53759 -109.46645 38156 ft 461 kts 308°
2026-04-27 00:32 48.57958 -109.53971 38150 ft 461 kts 308°
2026-04-27 00:32 48.62150 -109.61303 38149 ft 461 kts 308°
2026-04-27 00:33 48.66310 -109.68600 38149 ft 461 kts 308°
2026-04-27 00:33 48.70489 -109.75950 38131 ft 461 kts 308°
2026-04-27 00:34 48.74666 -109.83319 38129 ft 461 kts 308°
2026-04-27 00:34 48.78839 -109.90700 38134 ft 461 kts 308°
2026-04-27 00:35 48.83011 -109.98101 38150 ft 461 kts 308°
2026-04-27 00:35 48.87178 -110.05513 38155 ft 461 kts 308°
2026-04-27 00:36 48.91341 -110.12939 38160 ft 462 kts 308°
2026-04-27 00:36 48.95500 -110.20379 38165 ft 462 kts 308°
2026-04-27 00:37 48.99637 -110.27799 38169 ft 462 kts 308°
2026-04-27 00:37 49.03791 -110.35272 38177 ft 462 kts 308°
2026-04-27 00:38 49.07941 -110.42759 38186 ft 462 kts 309°
2026-04-27 00:38 49.12084 -110.50253 38179 ft 462 kts 308°
2026-04-27 00:39 49.16222 -110.57761 38192 ft 462 kts 308°
2026-04-27 00:39 49.20354 -110.65278 38212 ft 462 kts 308°
2026-04-27 00:40 49.24478 -110.72804 38214 ft 462 kts 308°
2026-04-27 00:40 49.28601 -110.80348 38217 ft 462 kts 308°
2026-04-27 00:41 49.32714 -110.87896 38218 ft 462 kts 308°
2026-04-27 00:41 49.36824 -110.95461 38214 ft 461 kts 308°
2026-04-27 00:42 49.40928 -111.03036 38229 ft 461 kts 308°
2026-04-27 00:42 49.45029 -111.10626 38223 ft 462 kts 308°
2026-04-27 00:43 49.49125 -111.18229 38229 ft 462 kts 308°
2026-04-27 00:43 49.53216 -111.25847 38230 ft 462 kts 308°
2026-04-27 00:44 49.57274 -111.33423 38233 ft 462 kts 308°
2026-04-27 00:44 49.61357 -111.41068 38240 ft 462 kts 308°
2026-04-27 00:45 49.65435 -111.48726 38240 ft 462 kts 308°
2026-04-27 00:45 49.69508 -111.56397 38244 ft 462 kts 308°
2026-04-27 00:46 49.73576 -111.64083 38240 ft 462 kts 308°
2026-04-27 00:46 49.77638 -111.71779 38247 ft 462 kts 308°
2026-04-27 00:47 49.81700 -111.79497 38232 ft 462 kts 308°
2026-04-27 00:47 49.85760 -111.87234 37678 ft 463 kts 308°
2026-04-27 00:48 49.87775 -111.91081 37002 ft 458 kts 308°
2026-04-27 00:48 49.89778 -111.94913 36410 ft 453 kts 308°
2026-04-27 00:48 49.91745 -111.98678 35920 ft 447 kts 308°
2026-04-27 00:48 49.93689 -112.02408 35403 ft 441 kts 308°
2026-04-27 00:49 49.95604 -112.06086 34894 ft 436 kts 308°
2026-04-27 00:49 49.97477 -112.09688 34381 ft 432 kts 308°
2026-04-27 00:49 49.99351 -112.13299 33797 ft 427 kts 308°
2026-04-27 00:49 50.01202 -112.16870 33242 ft 422 kts 308°
2026-04-27 00:50 50.03031 -112.20403 32743 ft 416 kts 308°
2026-04-27 00:50 50.06606 -112.27324 31773 ft 405 kts 308°
2026-04-27 00:50 50.08358 -112.30722 31294 ft 400 kts 308°
2026-04-27 00:51 50.10088 -112.34081 30834 ft 395 kts 308°
2026-04-27 00:51 50.11797 -112.37406 30382 ft 391 kts 309°
2026-04-27 00:51 50.13486 -112.40694 29847 ft 386 kts 309°
2026-04-27 00:51 50.15149 -112.43936 29351 ft 380 kts 309°
2026-04-27 00:52 50.16785 -112.47129 28858 ft 374 kts 309°
2026-04-27 00:52 50.18392 -112.50269 28389 ft 368 kts 309°
2026-04-27 00:52 50.19979 -112.53372 27915 ft 363 kts 309°
2026-04-27 00:52 50.21542 -112.56435 27439 ft 358 kts 309°
2026-04-27 00:53 50.23087 -112.59463 26970 ft 354 kts 309°
2026-04-27 00:53 50.24612 -112.62457 26511 ft 350 kts 309°
2026-04-27 00:53 50.26121 -112.65423 26040 ft 347 kts 310°
2026-04-27 00:53 50.27615 -112.68363 25596 ft 344 kts 310°
2026-04-27 00:54 50.29095 -112.71275 25155 ft 340 kts 310°
2026-04-27 00:54 50.30561 -112.74167 24711 ft 338 kts 310°
2026-04-27 00:54 50.32014 -112.77033 24272 ft 335 kts 311°
2026-04-27 00:54 50.33561 -112.79723 23828 ft 331 kts 316°
2026-04-27 00:55 50.35167 -112.82222 23326 ft 329 kts 317°
2026-04-27 00:55 50.36792 -112.84714 22831 ft 325 kts 317°
2026-04-27 00:55 50.38390 -112.87186 22407 ft 321 kts 317°
2026-04-27 00:55 50.39963 -112.89643 21966 ft 318 kts 316°
2026-04-27 00:56 50.41524 -112.92092 21528 ft 318 kts 316°
2026-04-27 00:56 50.43090 -112.94574 21085 ft 322 kts 316°
2026-04-27 00:56 50.44670 -112.97103 20639 ft 327 kts 316°
2026-04-27 00:56 50.46272 -112.99675 20184 ft 331 kts 315°
2026-04-27 00:57 50.47874 -113.02246 19715 ft 327 kts 315°
2026-04-27 00:57 50.49458 -113.04791 19266 ft 324 kts 315°
2026-04-27 00:57 50.51024 -113.07306 18820 ft 320 kts 315°
2026-04-27 00:57 50.52583 -113.09786 18343 ft 317 kts 316°
2026-04-27 00:58 50.54132 -113.12230 17841 ft 314 kts 315°
2026-04-27 00:58 50.55663 -113.14648 17394 ft 310 kts 315°
2026-04-27 00:58 50.57172 -113.17034 16960 ft 306 kts 315°
2026-04-27 00:58 50.58659 -113.19390 16533 ft 301 kts 315°
2026-04-27 00:59 50.60126 -113.21719 16094 ft 298 kts 315°
2026-04-27 00:59 50.61573 -113.24033 15668 ft 295 kts 314°
2026-04-27 00:59 50.62998 -113.26336 15245 ft 292 kts 314°
2026-04-27 00:59 50.63929 -113.27843 14970 ft 290 kts 314°
2026-04-27 01:00 50.65327 -113.30107 14628 ft 285 kts 314°
2026-04-27 01:00 50.66682 -113.32301 14433 ft 275 kts 314°
2026-04-27 01:00 50.67986 -113.34415 14304 ft 264 kts 314°
2026-04-27 01:00 50.69241 -113.36448 14187 ft 253 kts 313°
2026-04-27 01:01 50.70493 -113.38360 13892 ft 251 kts 317°
2026-04-27 01:01 50.71823 -113.40177 13637 ft 255 kts 319°
2026-04-27 01:01 50.73184 -113.42001 13344 ft 258 kts 319°
2026-04-27 01:01 50.74556 -113.43842 13042 ft 259 kts 319°
2026-04-27 01:02 50.75920 -113.45679 12735 ft 257 kts 319°
2026-04-27 01:02 50.77272 -113.47507 12457 ft 255 kts 319°
2026-04-27 01:02 50.78615 -113.49330 12164 ft 254 kts 319°
2026-04-27 01:02 50.79949 -113.51144 11879 ft 252 kts 319°
2026-04-27 01:03 50.81273 -113.52948 11591 ft 251 kts 319°
2026-04-27 01:03 50.82591 -113.54745 11316 ft 249 kts 319°
2026-04-27 01:03 50.83899 -113.56533 11045 ft 248 kts 319°
2026-04-27 01:03 50.85197 -113.58309 10765 ft 246 kts 319°
2026-04-27 01:04 50.86491 -113.60079 10491 ft 245 kts 319°
2026-04-27 01:04 50.87775 -113.61837 10205 ft 243 kts 319°
2026-04-27 01:04 50.89051 -113.63587 9901 ft 242 kts 319°
2026-04-27 01:04 50.90321 -113.65328 9605 ft 241 kts 319°
2026-04-27 01:05 50.91582 -113.67061 9315 ft 238 kts 319°
2026-04-27 01:05 50.92542 -113.69138 9049 ft 234 kts 291°
2026-04-27 01:05 50.92874 -113.71635 8832 ft 234 kts 274°
2026-04-27 01:05 50.92860 -113.74216 8619 ft 235 kts 271°
2026-04-27 01:06 50.92834 -113.76824 8392 ft 238 kts 271°
2026-04-27 01:06 50.92814 -113.79451 8154 ft 238 kts 271°
2026-04-27 01:06 50.92800 -113.82062 7919 ft 235 kts 271°
2026-04-27 01:06 50.92787 -113.84637 7685 ft 231 kts 271°
2026-04-27 01:07 50.92785 -113.87164 7468 ft 227 kts 271°
2026-04-27 01:07 50.92789 -113.89649 7253 ft 224 kts 271°
2026-04-27 01:07 50.92793 -113.92124 7054 ft 225 kts 271°
2026-04-27 01:07 50.92796 -113.94616 6846 ft 227 kts 271°
2026-04-27 01:08 50.93099 -113.97038 6601 ft 226 kts 301°
2026-04-27 01:08 50.94205 -113.98718 6376 ft 222 kts 338°
2026-04-27 01:08 50.95695 -113.99049 6175 ft 215 kts
2026-04-27 01:08 50.97147 -113.99014 5923 ft 209 kts
2026-04-27 01:09 50.98568 -113.99024 5714 ft 199 kts
2026-04-27 01:09 50.99893 -113.99027 5682 ft 188 kts
2026-04-27 01:09 51.01205 -113.99027 5688 ft 190 kts
2026-04-27 01:09 51.02537 -113.99026 5437 ft 191 kts
2026-04-27 01:10 51.03878 -113.99026 5163 ft 189 kts
2026-04-27 01:10 51.05159 -113.99026 4906 ft 181 kts
2026-04-27 01:10 51.06367 -113.99027 4648 ft 166 kts
2026-04-27 01:10 51.07451 -113.99027 4408 ft 147 kts
2026-04-27 01:11 51.08447 -113.99041 4063 ft 141 kts
2026-04-27 01:11 51.09398 -113.99052 3891 ft 133 kts
2026-04-27 01:11 51.10339 -113.99055 3758 ft 141 kts
2026-04-27 01:11 51.11295 -113.99043 3569 ft 130 kts
2026-04-27 01:12 51.12105 -113.99037 3564 ft 99 kts 360°
2026-04-27 01:12 51.12643 -113.99035 3559 ft 55 kts
2026-04-27 01:12 51.12886 -113.99051 3561 ft 26 kts 347°
2026-04-27 01:12 51.13028 -113.99130 3561 ft 17 kts 333°
2026-04-27 01:13 51.13109 -113.99205 3560 ft 10 kts 330°
2026-04-27 01:13 51.13157 -113.99274 3558 ft 9 kts 297°
2026-04-27 01:13 51.13159 -113.99377 3559 ft 9 kts 269°
2026-04-27 01:13 51.13160 -113.99478 3559 ft 9 kts 271°
2026-04-27 01:14 51.13160 -113.99575 3559 ft 9 kts 271°
2026-04-27 01:14 51.13160 -113.99669 3559 ft 8 kts 270°
2026-04-27 01:14 51.13161 -113.99762 3558 ft 8 kts 270°
2026-04-27 01:14 51.13160 -113.99851 3558 ft 8 kts 269°
2026-04-27 01:15 51.13160 -113.99927 3558 ft 0 kts 269°
2026-04-27 01:16 51.13160 -113.99949 3558 ft 6 kts 274°
2026-04-27 01:16 51.13157 -114.00026 3554 ft 5 kts 243°
2026-04-27 01:16 51.13137 -114.00032 3556 ft 6 kts 159°
2026-04-27 01:17 51.13099 -114.00027 3558 ft 5 kts 181°
2026-04-27 01:17 51.13084 -114.00027 3554 ft 0 kts 181°